Content
SEND FEEDBACK

Daily
Averages
Monthly
Summary
Switzerland

GENEVA, SWITZERLAND


Home > Europe > Switzerland
Elevation: 1364 feet     Latitude: 46 15N     Longitude: 006 08E

WEATHER
 
SELECT A DAY
Number of Records: 305,523;   Date Range: 7/1/96 - 7/23/14
 
SHARE

PRINT THIS DATA

[ ← Previous Day ]
WEATHER ALMANAC - OCTOBER 22, 2013
[ Next Day → ]
[ °C ]   °F
Weather ElementAverageHighLow
Temperature52.3 °F59 °F (4:20 pm)48.2 °F (1:20 am)
Dewpoint51.5 °F55.4 °F (2:50 pm)47 °F (6:00 am)
Humidity96.8 %100 % (12:20 am)81 % (4:00 pm)
Barometer29.93 in30.06 in (1:00 am)29.80 in (5:20 pm)
Wind Speed1.5 mph4.6 mph (6:20 pm)
Weather ElementAverage
Visibility2.7 mi
Wind DirectionENE (58.2 °)

Weather ElementTotal
Precipitation---
Heating Degree Days11.4 (Base 65)
Growing Degree Days3.6 (Base 50)
Averaged from 66 records on October 22, 2013
WEATHER CONDITIONS BREAKOUT
WIND DIRECTION BREAKOUT
WEATHER BY HOUR - OCTOBER 22, 2013
[ °C ]   °F
Local TimeTemperatureDewpointHumidityBarometerVisibilityWind DirectionWind SpeedGust SpeedPrecipitationEventsConditions
12:20 AM50.0 °F50.0 °F100 %30.04 in4.3 miCalmFogShallow Fog
12:50 AM50.0 °F50.0 °F100 %30.04 in2.5 miVariable1.2 mphFogMist
1:00 AM50.0 °F49.0 °F93 %30.06 inWest (260°)1.2 mph
1:20 AM48.2 °F48.2 °F100 %30.04 in2.8 miCalmFogMist
1:50 AM48.2 °F48.2 °F100 %30.04 in2.8 miVariable1.2 mphFogScattered Clouds
2:00 AM50.0 °F49.0 °F93 %30.06 in2.0 miSW (230°)1.2 mphFogPatches of Fog
2:20 AM48.2 °F48.2 °F100 %30.04 in2.5 miVariable2.3 mphFogMist
2:50 AM48.2 °F48.2 °F100 %30.04 in3.1 miCalmFogMist
3:00 AM49.0 °F48.0 °F94 %30.06 inSE (130°)1.2 mph
3:50 AM48.2 °F48.2 °F100 %30.04 in4.3 miVariable1.2 mphFogFog
4:00 AM50.0 °F48.0 °F90 %30.05 inSouth (180°)1.2 mph
4:20 AM48.2 °F48.2 °F100 %30.04 in4.3 miCalmFogFog
4:50 AM50.0 °F50.0 °F100 %30.01 in6.2 miCalmFogMostly Cloudy
5:20 AM50.0 °F50.0 °F100 %30.01 in4.3 miVariable1.2 mphScattered Clouds
5:50 AM48.2 °F48.2 °F100 %30.01 in3.7 miCalmScattered Clouds
6:00 AM49.0 °F47.0 °F92 %30.02 inNNW (340°)2.3 mph
6:20 AM48.2 °F48.2 °F100 %30.01 in3.1 miCalmFogScattered Clouds
6:50 AM48.2 °F48.2 °F100 %30.01 in0.6 miCalmFogScattered Clouds
7:00 AM49.0 °F49.0 °F100 %30.01 inNorth1.2 mph
7:20 AM50.0 °F50.0 °F100 %29.98 in0.1 miVariable1.2 mphFogFog
7:50 AM50.0 °F50.0 °F100 %29.98 in0.2 miVariable1.2 mphFogFog
8:00 AM51.0 °F50.0 °F96 %30.00 in0.0 miNE (50°)2.3 mphFogPartial Fog
8:20 AM50.0 °F50.0 °F100 %29.98 in0.1 miCalmFogFog
8:50 AM51.8 °F51.8 °F100 %29.98 in0.2 miCalmFogFog
9:00 AM52.0 °F51.0 °F94 %30.00 inNorth1.2 mph
9:20 AM51.8 °F51.8 °F100 %29.98 in0.2 miVariable1.2 mphFogFog
9:50 AM51.8 °F51.8 °F100 %29.98 in0.3 miCalmFogFog
10:00 AM52.0 °F52.0 °F100 %29.99 inEast (100°)1.2 mph
10:20 AM51.8 °F51.8 °F100 %29.98 in0.4 miVariable1.2 mphFogFog
10:50 AM51.8 °F51.8 °F100 %29.98 in0.4 miVariable1.2 mphFogFog
11:20 AM53.6 °F53.6 °F100 %29.95 in0.5 miVariable1.2 mphFogLight Fog
11:50 AM53.6 °F53.6 °F100 %29.95 in0.5 miVariable1.2 mphFogMist
12:00 PM54.0 °F52.0 °F91 %29.96 inNNW (330°)2.3 mph
12:20 PM53.6 °F53.6 °F100 %29.95 in0.7 miVariable2.3 mphOvercast
12:50 PM53.6 °F53.6 °F100 %29.95 in1.5 miVariable2.3 mphOvercast
1:00 PM54.0 °F53.0 °F94 %29.94 inNorth1.2 mph
1:20 PM53.6 °F53.6 °F100 %29.92 in1.6 miVariable2.3 mphOvercast
1:50 PM53.6 °F53.6 °F100 %29.92 in1.4 miVariable3.5 mphOvercast
2:00 PM54.0 °F52.0 °F92 %29.90 in1.0 miEast (80°)3.5 mphMist
2:20 PM55.4 °F53.6 °F94 %29.89 in1.7 miENE (70°)3.5 mphOvercast
2:50 PM55.4 °F55.4 °F100 %29.89 in2.8 miVariable2.3 mphOvercast
3:00 PM55.0 °F53.0 °F88 %29.87 inSouth (190°)1.2 mph
3:20 PM57.2 °F55.4 °F94 %29.86 in3.7 miVariable1.2 mphMostly Cloudy
3:50 PM57.2 °F55.4 °F94 %29.86 in4.3 miVariable1.2 mphMostly Cloudy
4:00 PM57.0 °F53.0 °F81 %29.84 inSouth (180°)2.3 mph
4:20 PM59.0 °F55.4 °F88 %29.83 in5.0 miVariable1.2 mphPartly Cloudy
4:50 PM57.2 °F55.4 °F94 %29.83 in5.0 miVariable2.3 mph
5:20 PM59.0 °F55.4 °F88 %29.80 in5.0 miVariable2.3 mph
5:50 PM57.2 °F55.4 °F94 %29.80 in5.0 miVariable2.3 mphPartly Cloudy
6:00 PM56.0 °F53.0 °F88 %29.81 inSW (230°)2.3 mph
6:20 PM55.4 °F53.6 °F94 %29.80 in4.3 miWSW (240°)4.6 mphPartly Cloudy
6:50 PM55.4 °F53.6 °F94 %29.80 in4.3 miVariable2.3 mphPartly Cloudy
7:00 PM54.0 °F52.0 °F92 %29.81 inNW (310°)1.2 mph
7:20 PM53.6 °F53.6 °F100 %29.80 in4.3 miCalmPartly Cloudy
7:50 PM53.6 °F53.6 °F100 %29.80 in4.3 miVariable2.3 mphScattered Clouds
8:00 PM52.0 °F51.0 °F95 %29.82 in4.0 miNorth (350°)3.5 mphMist
8:20 PM53.6 °F53.6 °F100 %29.80 in4.3 miCalm
8:50 PM51.8 °F51.8 °F100 %29.80 in3.7 miCalmFogFog
9:00 PM53.0 °F51.0 °F90 %29.82 inWNW (290°)3.5 mph
9:20 PM51.8 °F51.8 °F100 %29.83 in3.7 miVariable2.3 mphFogFog
9:50 PM51.8 °F51.8 °F100 %29.83 in3.7 miVariable3.5 mph
10:00 PM53.0 °F51.0 °F91 %29.83 inWest (280°)2.3 mph
10:20 PM51.8 °F51.8 °F100 %29.83 in3.7 miVariable1.2 mph
10:50 PM51.8 °F51.8 °F100 %29.83 in3.7 miVariable1.2 mph
11:20 PM51.8 °F51.8 °F100 %29.83 in3.7 miVariable1.2 mph
11:50 PM51.8 °F51.8 °F100 %29.83 in3.7 miVariable2.3 mph
Hourly data recorded from LSGG, located miles away from Geneva, Switzerland







STORIES FROM OUR PARTNERS